Дата Пункты Температура Давл., мм. Влажн., % Ветер Погодные явления
Воздуха Воды Направл. Скорость
27.09.14 05:00 Одесса 14.0 18.0 759 87 Пн 4 06 часов
27.09.14 02:00 Одесса 15.0 18.0 759 70 Пн-С 4 03 часа
26.09.14 08:00 Одесса 13.0 18.0 759 70 З 1 21 час
26.09.14 05:00 Одесса 16.0 18.0 759 49 Пд-С 2 18 часов
26.09.14 02:00 Одесса 16.0 18.0 759 46 С 2 15 часов
26.09.14 11:00 Одесса 15.0 18.0 760 46 Пн-С 3 12 часов
26.09.14 08:00 Одесса 13.0 18.0 759 66 Пн 2 09 часов
26.09.14 05:00 Одесса 6.0 18.0 759 91 Пн-З 1 06 часов
26.09.14 02:00 Одесса 7.0 18.0 759 87 З 1 03 часа
25.09.14 08:00 Одесса 10.0 18.0 759 69 З 1 21 час
25.09.14 05:00 Одесса 15.0 18.0 758 44 Пн-З 1 18 часов
25.09.14 02:00 Одесса 17.0 18.0 758 35 Пн-З 1 15 часов
25.09.14 11:00 Одесса 13.0 17.0 759 39 Пн-З 3 12 часов
25.09.14 08:00 Одесса 9.0 17.0 759 62 З 2 09 часов
25.09.14 05:00 Одесса 5.0 18.0 759 76 З 2 06 часов
25.09.14 02:00 Одесса 6.0 18.0 759 73 З 2 03 часа
24.09.14 08:00 Одесса 9.0 18.0 758 56 Пн-З 2 21 час
24.09.14 05:00 Одесса 12.0 18.0 757 48 Пн-З 4 18 часов
24.09.14 02:00 Одесса 14.0 18.0 756 51 Пн-З 4 15 часов
24.09.14 11:00 Одесса 13.0 19.0 755 59 З 6 12 часов
Количество строк
531 532 533 534 535 536 537 538 539 540
Page 538 of 543